Temp
-2 -2 -1 -1 -1 -1 -1 -1 -1 -1 -1 -1 -1 -1 -0 -0 -0 -0 0 0 0 0 0 0 -0 0 0 1 1 1 1 1 1 1 1 1 1 1 1 1 1 1 2 2 3 3 4 5 5 5 5 6 6 6 6 6 6 6 6 7 7 7 7 7 7 7 7 7 7
-2 -2 -1 -1 -1 -1 -1 -1 -1 -1 -1 -1 -1 -1 -1 -1 -1 -1 -0 -0 -0 -0 -0 -0 -1 -0 -0 0 0 0 0 0 1 1 1 1 0 0 1 1 1 1 1 2 2 3 3 4 4 4 5 5 5 5 5 5 5 5 5 5 6 6 6 6 6 6 6 7 6
-2 -2 -2 -2 -2 -2 -2 -2 -2 -2 -2 -1 -1 -1 -1 -1 -1 -1 -1 -1 -1 -1 -1 -1 -1 -1 -1 -1 -1 -1 -0 -0 0 0 0 0 -0 -0 0 0 0 0 1 2 2 3 3 3 4 4 4 4 4 4 4 3 3 4 4 4 4 5 5 5 5 5 5 5 5
-3 -3 -3 -3 -3 -3 -3 -3 -3 -2 -2 -2 -2 -2 -2 -2 -2 -2 -2 -1 -1 -1 -2 -2 -2 -2 -2 -2 -1 -1 -1 -1 -1 -0 -0 -0 -1 -1 -1 -1 -1 -1 -0 1 2 2 3 3 3 3 3 3 3 3 3 3 3 3 3 3 4 4 4 4 4 4 4 4 4
-3 -3 -3 -4 -4 -3 -3 -3 -3 -3 -3 -3 -3 -3 -3 -3 -3 -3 -2 -2 -2 -2 -2 -2 -2 -2 -2 -2 -2 -2 -2 -2 -1 -1 -1 -1 -1 -1 -1 -1 -1 -1 -1 -0 1 1 2 2 2 2 2 2 3 2 2 2 2 2 2 2 3 3 3 3 3 3 3 3 3
-4 -4 -4 -4 -4 -4 -4 -4 -4 -4 -4 -4 -4 -4 -4 -4 -4 -3 -3 -3 -3 -3 -3 -3 -2 -2 -2 -2 -2 -2 -2 -2 -2 -2 -2 -2 -2 -2 -2 -2 -2 -2 -2 -1 -1 0 1 1 1 1 1 1 2 1 1 1 1 1 1 1 2 3 3 2 2 2 2 2 2
-4 -4 -4 -4 -4 -4 -4 -4 -4 -4 -4 -4 -4 -4 -4 -4 -4 -4 -4 -4 -4 -3 -3 -3 -3 -3 -3 -2 -2 -2 -2 -3 -3 -2 -2 -2 -2 -2 -2 -3 -3 -2 -2 -2 -2 -1 -1 -1 -0 0 0 0 0 0 0 -0 -0 0 0 1 1 1 1 1 1 1 1 1 1
-5 -5 -4 -4 -4 -4 -4 -4 -4 -4 -4 -4 -4 -4 -4 -4 -4 -4 -4 -4 -4 -4 -4 -3 -3 -3 -2 -2 -2 -2 -2 -2 -3 -3 -3 -3 -3 -3 -3 -3 -3 -3 -3 -3 -2 -2 -2 -2 -1 -1 -1 -1 -0 -0 -1 -1 -1 -1 -1 -0 0 1 1 1 0 0 0 0 0
-5 -5 -5 -4 -4 -4 -4 -4 -4 -4 -4 -4 -4 -4 -4 -4 -4 -4 -4 -4 -4 -4 -4 -3 -3 -2 -2 -2 -2 -2 -2 -2 -3 -3 -3 -3 -3 -3 -3 -3 -3 -3 -3 -3 -3 -3 -2 -2 -2 -2 -1 -1 -1 -1 -1 -1 -1 -1 -1 -1 -0 -0 -0 -0 -0 -0 -0 -0 -0
-5 -5 -5 -5 -5 -5 -5 -4 -4 -4 -4 -4 -4 -4 -4 -4 -4 -4 -4 -4 -4 -3 -3 -3 -2 -2 -2 -2 -2 -2 -3 -3 -3 -3 -3 -3 -3 -3 -3 -3 -3 -3 -3 -3 -3 -3 -3 -3 -2 -2 -2 -2 -2 -2 -2 -2 -1 -1 -1 -1 -1 -0 -0 -0 -0 -0 -0 -1 -1
-5 -5 -5 -5 -5 -5 -4 -4 -4 -4 -4 -4 -4 -4 -4 -4 -4 -4 -4 -4 -4 -3 -3 -2 -2 -2 -2 -2 -2 -2 -3 -3 -3 -3 -3 -3 -3 -3 -3 -3 -3 -3 -3 -3 -3 -3 -3 -3 -3 -2 -2 -2 -2 -2 -2 -2 -1 -1 -1 -1 -1 -1 -1 -1 -1 -1 -1 -1 -1
-5 -4 -4 -4 -4 -4 -4 -4 -4 -4 -4 -4 -4 -3 -3 -3 -4 -4 -4 -4 -3 -3 -2 -2 -2 -2 -2 -2 -2 -2 -3 -3 -3 -3 -3 -3 -3 -3 -3 -3 -3 -3 -3 -3 -4 -3 -3 -3 -3 -3 -3 -3 -2 -2 -2 -2 -1 -1 -1 -1 -1 -1 -1 -1 -1 -1 -1 -1 -1
-4 -4 -4 -4 -4 -4 -4 -4 -4 -4 -4 -4 -3 -3 -3 -3 -3 -4 -4 -3 -3 -3 -2 -2 -2 -2 -2 -2 -2 -2 -3 -3 -4 -4 -4 -3 -3 -3 -3 -3 -3 -4 -4 -4 -4 -4 -3 -3 -3 -3 -3 -3 -3 -2 -2 -2 -1 -1 -1 -1 -1 -1 -1 -1 -1 -1 -1 -1 -1
-4 -4 -4 -4 -3 -3 -3 -3 -3 -3 -3 -3 -3 -2 -2 -2 -3 -3 -3 -3 -3 -2 -2 -2 -2 -2 -2 -2 -2 -2 -3 -3 -4 -4 -4 -3 -3 -3 -3 -3 -3 -4 -4 -4 -4 -4 -4 -3 -3 -3 -3 -3 -3 -2 -2 -2 -1 -1 -1 -1 -1 -1 -1 -1 -1 -1 -1 -1 -1
-3 -3 -3 -3 -3 -2 -2 -2 -2 -2 -2 -2 -2 -2 -2 -2 -3 -3 -3 -2 -2 -2 -2 -2 -2 -2 -2 -2 -2 -2 -2 -3 -3 -3 -3 -3 -3 -3 -3 -3 -3 -3 -4 -4 -4 -4 -4 -4 -4 -4 -3 -3 -3 -2 -2 -2 -1 -1 -1 -1 -1 -1 -1 -1 -1 -1 -1 -1 -1
-3 -3 -2 -2 -2 -2 -2 -2 -2 -2 -2 -2 -2 -2 -2 -2 -2 -2 -2 -2 -2 -2 -2 -2 -2 -2 -2 -2 -2 -2 -2 -3 -3 -3 -3 -3 -3 -3 -3 -3 -4 -4 -4 -4 -4 -4 -4 -4 -4 -4 -3 -3 -3 -2 -2 -2 -1 -1 -1 -1 -1 -1 -1 -1 -1 -1 -1 -1 -1
-3 -3 -2 -2 -2 -2 -2 -2 -2 -2 -2 -2 -2 -2 -2 -2 -2 -2 -2 -2 -2 -2 -2 -2 -2 -2 -2 -2 -2 -2 -2 -3 -3 -3 -3 -3 -3 -4 -4 -4 -4 -4 -4 -4 -4 -4 -4 -4 -4 -4 -3 -3 -3 -2 -2 -1 -1 -1 -1 -1 -1 -1 -1 -1 -2 -2 -2 -2 -2
-3 -3 -3 -2 -2 -2 -2 -2 -2 -2 -2 -2 -2 -2 -2 -2 -2 -2 -2 -2 -2 -2 -2 -2 -2 -2 -2 -2 -2 -2 -3 -3 -3 -3 -3 -4 -4 -4 -4 -4 -4 -5 -5 -5 -5 -5 -4 -4 -4 -4 -3 -3 -2 -2 -2 -1 -1 -1 -1 -1 -1 -1 -1 -2 -2 -2 -2 -2 -2
-4 -3 -3 -3 -3 -3 -3 -3 -3 -3 -2 -2 -2 -2 -2 -2 -2 -2 -2 -2 -2 -2 -2 -2 -2 -2 -2 -2 -2 -2 -3 -3 -3 -3 -3 -4 -4 -4 -4 -4 -5 -5 -5 -5 -5 -5 -5 -4 -4 -4 -3 -3 -2 -2 -2 -1 -1 -1 -1 -1 -1 -1 -2 -2 -2 -2 -2 -2 -2
-4 -4 -3 -3 -3 -3 -3 -3 -3 -2 -2 -2 -2 -2 -2 -2 -2 -2 -2 -2 -2 -2 -2 -2 -2 -2 -2 -2 -2 -2 -3 -3 -3 -3 -4 -4 -4 -4 -4 -5 -5 -5 -5 -5 -5 -5 -5 -4 -4 -3 -3 -2 -2 -2 -1 -1 -1 -1 -1 -1 -1 -2 -2 -2 -2 -2 -2 -2 -2
-4 -4 -3 -3 -3 -3 -3 -3 -3 -3 -2 -2 -2 -2 -2 -2 -2 -2 -2 -2 -2 -2 -2 -2 -2 -2 -2 -2 -2 -2 -3 -3 -3 -3 -4 -4 -4 -5 -5 -5 -5 -5 -5 -5 -5 -5 -5 -4 -4 -3 -2 -2 -2 -2 -1 -1 -1 -1 -1 -1 -1 -2 -2 -2 -2 -2 -2 -2 -2
-4 -4 -3 -3 -3 -3 -3 -3 -3 -3 -2 -2 -2 -2 -2 -2 -2 -2 -2 -2 -2 -2 -2 -2 -2 -2 -2 -3 -3 -3 -3 -3 -3 -4 -4 -4 -5 -5 -5 -5 -5 -5 -5 -5 -5 -5 -4 -4 -3 -3 -2 -2 -2 -1 -1 -1 -1 -1 -1 -1 -1 -1 -1 -2 -2 -2 -2 -2 -2
-4 -4 -3 -3 -3 -3 -3 -3 -3 -3 -2 -2 -2 -2 -2 -2 -2 -2 -2 -2 -2 -2 -2 -2 -3 -3 -3 -3 -3 -3 -3 -3 -3 -4 -4 -5 -5 -6 -6 -6 -5 -5 -5 -5 -5 -5 -4 -3 -3 -2 -2 -2 -1 -1 -1 -1 -1 -1 -1 -1 -1 -1 -2 -2 -2 -2 -2 -2 -3
-4 -3 -3 -3 -3 -3 -3 -3 -3 -3 -2 -2 -2 -2 -2 -2 -2 -2 -2 -2 -2 -2 -3 -3 -3 -3 -3 -3 -3 -3 -3 -4 -4 -4 -5 -5 -6 -6 -6 -6 -5 -5 -5 -5 -5 -4 -3 -3 -2 -2 -2 -1 -1 -1 -1 -1 -1 -1 -1 -1 -1 -2 -2 -2 -2 -2 -2 -3 -3
-4 -3 -3 -3 -3 -3 -3 -3 -3 -3 -3 -2 -2 -2 -2 -2 -2 -2 -3 -3 -3 -3 -3 -3 -3 -3 -3 -3 -3 -4 -4 -4 -4 -5 -6 -5 -6 -6 -6 -5 -5 -5 -5 -5 -5 -4 -3 -3 -2 -2 -2 -1 -1 -1 -2 -2 -2 -2 -2 -2 -2 -2 -2 -2 -2 -3 -3 -3 -3
-4 -3 -3 -3 -3 -3 -3 -3 -3 -3 -3 -3 -2 -2 -3 -3 -3 -3 -3 -3 -3 -3 -3 -3 -3 -3 -4 -4 -4 -4 -4 -4 -4 -5 -6 -6 -6 -6 -6 -5 -5 -5 -5 -5 -4 -4 -3 -2 -2 -2 -2 -2 -2 -2 -2 -2 -2 -2 -2 -2 -2 -2 -2 -2 -3 -3 -3 -3 -3
-4 -3 -3 -3 -3 -3 -3 -3 -3 -3 -3 -3 -3 -3 -3 -3 -3 -3 -3 -3 -3 -3 -3 -3 -3 -4 -4 -4 -4 -4 -4 -4 -5 -5 -6 -6 -6 -6 -6 -5 -5 -5 -5 -5 -4 -4 -3 -2 -2 -2 -2 -2 -2 -2 -2 -2 -2 -2 -2 -2 -2 -2 -3 -3 -3 -3 -3 -3 -3
-4 -4 -4 -4 -4 -3 -3 -3 -3 -3 -3 -3 -3 -3 -3 -3 -3 -3 -3 -3 -3 -3 -3 -3 -4 -4 -4 -4 -5 -5 -5 -5 -5 -6 -6 -6 -6 -6 -5 -5 -5 -5 -5 -5 -4 -4 -3 -2 -2 -2 -2 -2 -2 -2 -2 -2 -2 -2 -2 -2 -3 -3 -3 -3 -3 -3 -3 -3 -3
-4 -4 -4 -4 -4 -4 -3 -3 -3 -3 -3 -3 -3 -3 -3 -3 -3 -3 -3 -3 -3 -4 -4 -4 -4 -4 -5 -5 -5 -5 -5 -5 -6 -6 -6 -6 -6 -6 -5 -5 -5 -5 -5 -5 -4 -4 -3 -3 -2 -2 -2 -2 -2 -2 -2 -2 -2 -2 -3 -3 -3 -3 -3 -3 -3 -3 -3 -3 -3
-4 -4 -4 -4 -4 -4 -3 -3 -3 -3 -3 -3 -3 -3 -3 -3 -3 -3 -4 -4 -4 -4 -5 -5 -5 -5 -5 -5 -5 -5 -5 -6 -6 -6 -6 -6 -6 -5 -5 -5 -5 -5 -5 -5 -4 -4 -3 -3 -2 -2 -2 -2 -2 -2 -2 -2 -3 -3 -3 -3 -3 -3 -3 -3 -3 -3 -3 -3 -3
-4 -4 -4 -4 -4 -3 -3 -3 -3 -3 -3 -3 -3 -3 -3 -3 -4 -4 -4 -5 -5 -5 -5 -5 -5 -5 -5 -5 -5 -5 -6 -6 -6 -6 -6 -6 -5 -5 -5 -5 -5 -5 -5 -5 -4 -4 -3 -3 -3 -2 -2 -2 -2 -2 -3 -3 -3 -3 -3 -3 -3 -3 -3 -3 -3 -3 -3 -3 -3
-4 -4 -4 -4 -3 -3 -3 -3 -3 -3 -3 -3 -3 -3 -4 -4 -4 -4 -5 -5 -5 -5 -5 -5 -5 -5 -5 -5 -5 -6 -6 -6 -6 -6 -6 -5 -5 -5 -5 -5 -5 -5 -5 -5 -4 -4 -3 -3 -3 -3 -2 -2 -2 -3 -3 -3 -3 -3 -3 -3 -3 -3 -3 -4 -4 -4 -4 -4 -4
-4 -4 -4 -3 -3 -3 -3 -3 -3 -3 -3 -3 -4 -4 -4 -4 -4 -4 -5 -5 -5 -5 -5 -5 -6 -6 -6 -6 -6 -6 -6 -6 -6 -6 -5 -5 -5 -5 -5 -5 -5 -5 -5 -5 -4 -4 -3 -3 -3 -3 -2 -2 -3 -3 -3 -3 -4 -4 -4 -4 -4 -4 -4 -4 -4 -4 -4 -4 -4
-3 -3 -3 -3 -3 -3 -3 -3 -3 -3 -3 -3 -4 -4 -4 -4 -4 -4 -5 -5 -5 -6 -6 -6 -6 -6 -6 -6 -6 -6 -6 -6 -6 -6 -5 -5 -5 -5 -5 -5 -5 -5 -5 -5 -4 -4 -4 -3 -3 -3 -3 -3 -3 -3 -3 -4 -4 -4 -4 -4 -4 -4 -4 -4 -4 -4 -4 -4 -4
-3 -3 -3 -3 -3 -3 -3 -3 -3 -3 -3 -4 -4 -4 -4 -4 -5 -5 -5 -5 -6 -6 -6 -6 -6 -6 -6 -6 -6 -6 -6 -6 -6 -6 -5 -5 -5 -5 -5 -5 -5 -5 -5 -5 -4 -4 -4 -3 -3 -3 -3 -3 -3 -3 -4 -4 -4 -4 -4 -4 -4 -4 -4 -4 -4 -4 -4 -4 -4
-3 -3 -3 -3 -3 -3 -3 -3 -3 -3 -4 -4 -4 -4 -4 -4 -5 -5 -5 -6 -6 -6 -6 -6 -6 -6 -6 -6 -6 -6 -6 -6 -6 -6 -5 -5 -5 -5 -5 -5 -5 -5 -5 -5 -5 -4 -4 -3 -3 -3 -3 -3 -3 -3 -4 -4 -4 -4 -4 -4 -4 -4 -3 -3 -3 -3 -3 -4 -4
-3 -3 -3 -3 -3 -3 -3 -3 -4 -4 -4 -4 -4 -5 -5 -5 -5 -5 -5 -6 -6 -6 -6 -6 -6 -6 -6 -6 -6 -6 -6 -6 -6 -6 -5 -5 -5 -5 -5 -5 -5 -5 -5 -5 -5 -4 -4 -4 -3 -3 -3 -3 -3 -3 -4 -4 -4 -4 -4 -3 -3 -3 -3 -3 -3 -3 -3 -4 -4
-3 -3 -3 -3 -3 -3 -3 -4 -4 -4 -4 -4 -5 -5 -5 -5 -5 -5 -6 -6 -6 -6 -6 -6 -6 -6 -6 -6 -6 -6 -6 -5 -6 -5 -5 -5 -5 -5 -5 -5 -5 -5 -5 -5 -5 -4 -4 -4 -3 -3 -3 -3 -3 -3 -3 -3 -3 -3 -3 -3 -3 -3 -3 -3 -3 -3 -3 -4 -4
-3 -3 -3 -3 -3 -4 -4 -4 -4 -4 -5 -5 -5 -5 -5 -5 -5 -6 -6 -6 -6 -6 -6 -6 -6 -6 -6 -6 -6 -6 -6 -5 -5 -5 -5 -5 -5 -5 -5 -5 -5 -5 -5 -5 -5 -5 -4 -4 -3 -3 -3 -3 -3 -3 -3 -3 -3 -3 -3 -3 -3 -3 -3 -3 -3 -3 -4 -4 -4
-3 -3 -3 -3 -4 -4 -4 -4 -4 -5 -5 -5 -5 -5 -5 -6 -6 -6 -6 -6 -6 -6 -6 -6 -6 -6 -6 -6 -6 -6 -6 -5 -5 -5 -5 -5 -5 -5 -5 -5 -5 -5 -5 -5 -5 -5 -4 -4 -4 -3 -3 -3 -3 -3 -3 -3 -3 -3 -3 -3 -3 -3 -3 -3 -3 -4 -4 -4 -4
-3 -3 -3 -4 -4 -4 -4 -4 -5 -5 -5 -5 -5 -5 -6 -6 -6 -6 -6 -6 -6 -6 -6 -6 -6 -6 -6 -6 -6 -6 -6 -5 -5 -5 -5 -5 -5 -5 -5 -5 -5 -5 -5 -5 -5 -5 -4 -4 -4 -3 -3 -3 -3 -3 -3 -3 -3 -3 -3 -3 -3 -3 -3 -3 -4 -4 -4 -4 -4
Height
816 816 815 815 814 814 814 813 813 813 812 811 811 810 810 810 809 809 809 808 808 808 807 807 806 805 804 803 803 802 801 800 800 799 798 798 796 795 794 793 792 791 790 788 788 787 786 785 785 785 785 784 783 783 782 781 781 780 780 779 779 778 778 778 778 777 776 776 776
816 815 815 815 814 814 813 813 813 812 812 811 811 810 810 810 810 809 809 808 808 808 807 807 806 805 804 803 803 802 801 800 799 799 798 797 796 794 793 793 792 791 790 788 788 787 786 785 785 785 785 784 783 783 782 781 781 780 779 779 779 778 778 778 777 777 776 776 775
816 815 815 814 814 813 813 812 812 812 811 811 811 810 810 810 810 809 809 808 808 808 807 807 806 805 804 803 802 802 801 800 799 798 798 797 795 794 793 792 791 791 789 788 788 787 786 786 786 786 785 784 784 783 782 781 781 780 779 779 779 778 778 778 777 777 776 776 775
816 815 815 814 814 813 813 812 812 812 811 811 811 810 810 810 810 809 808 808 808 807 807 806 805 804 803 803 802 801 800 799 798 798 797 796 795 794 793 792 791 790 789 788 788 787 786 786 786 786 785 784 784 783 782 781 781 780 780 779 779 779 778 778 777 777 776 776 775
816 816 815 815 814 813 813 812 812 812 812 811 811 810 810 809 809 808 808 808 807 807 806 806 805 804 803 802 801 800 799 798 798 797 797 796 795 794 793 792 791 790 789 788 788 787 786 786 786 786 785 784 784 783 783 782 781 780 780 779 779 779 778 778 777 777 776 776 775
817 816 816 815 814 814 813 813 812 812 812 811 811 810 810 809 809 808 808 807 807 806 806 805 804 803 802 801 800 799 798 798 797 797 796 795 794 793 793 792 791 790 789 788 787 787 786 785 786 786 785 784 784 783 782 782 781 780 780 779 779 779 778 778 777 777 776 775 775
817 817 816 815 815 814 813 813 812 812 811 811 810 810 809 809 809 808 808 807 806 805 805 804 803 803 802 801 800 799 798 798 797 797 796 795 794 793 793 792 791 790 789 788 787 786 786 785 785 785 785 784 783 783 782 782 781 780 780 779 779 779 778 778 777 776 776 775 774
817 817 816 815 815 814 813 813 812 812 811 811 810 810 809 809 808 808 807 806 805 805 804 803 803 802 801 800 799 799 798 797 797 796 796 795 794 793 792 792 791 790 789 788 787 786 785 785 785 785 784 784 783 783 782 781 781 780 780 779 779 778 778 778 777 776 775 774 774
817 817 816 815 814 814 813 812 812 812 811 810 810 809 809 808 808 807 806 805 805 804 803 803 802 801 801 800 799 798 798 797 796 796 795 795 794 793 792 791 791 790 789 788 787 786 786 785 785 785 784 784 783 783 782 781 781 780 779 779 778 778 778 777 776 776 775 774 773
817 816 816 815 814 813 813 812 812 811 811 810 809 808 808 808 807 806 805 805 804 803 803 802 802 801 800 800 799 798 798 797 796 796 795 794 794 793 792 791 790 790 789 788 787 786 786 785 785 784 784 783 783 782 782 781 780 780 779 779 778 778 777 776 776 775 774 773 773
817 816 815 814 813 813 812 812 811 811 810 809 808 808 807 806 806 805 804 804 803 803 803 802 801 801 800 800 799 798 798 797 796 795 795 794 793 793 792 791 790 789 788 788 787 786 785 785 784 784 783 783 782 782 781 780 780 779 779 778 778 777 776 776 775 774 773 773 772
816 815 814 814 813 812 812 811 810 810 809 808 808 807 806 806 805 804 804 803 803 803 802 802 801 801 800 799 799 798 797 796 796 795 795 794 793 793 792 791 790 789 788 787 787 786 785 785 784 783 783 783 782 781 781 780 779 779 778 778 777 776 775 775 774 773 773 772 771
815 815 814 813 813 812 811 810 810 809 808 808 807 806 806 805 805 804 804 803 803 803 802 802 801 801 800 799 798 798 797 796 796 795 795 794 793 792 791 790 789 789 788 787 786 785 785 784 784 783 782 782 781 781 780 780 779 778 778 777 776 775 775 774 773 773 772 771 770
815 814 813 813 812 811 810 809 809 808 808 807 806 806 806 805 805 804 804 803 803 803 802 801 801 800 800 799 798 798 797 796 796 795 794 794 793 792 791 790 789 788 787 786 786 785 784 784 783 783 782 781 781 780 780 779 779 778 777 776 775 775 774 773 773 772 771 770 769
814 813 813 812 811 811 810 809 808 808 807 807 806 806 806 805 805 804 804 803 803 802 801 801 800 800 799 799 798 798 797 796 795 795 794 793 792 791 790 789 788 787 787 786 785 784 784 783 783 782 782 781 780 780 779 779 778 778 777 776 775 774 773 773 772 771 770 769 768
813 813 812 811 811 810 809 809 808 808 807 807 806 806 805 805 804 804 803 803 802 802 801 800 800 799 799 798 798 797 796 796 795 794 793 792 791 790 789 788 788 787 786 785 784 784 783 783 783 782 781 781 780 779 779 778 778 777 776 775 774 774 773 772 771 770 769 768 768
813 812 812 811 811 810 809 809 808 808 807 807 806 806 805 805 804 803 803 803 802 801 800 800 799 799 798 798 797 796 796 795 794 793 793 792 791 790 789 788 787 786 786 785 784 784 783 783 782 782 781 780 780 779 778 778 777 776 775 774 774 773 772 771 770 769 768 768 767
813 812 812 811 810 810 809 809 808 808 807 806 806 805 805 804 804 803 803 802 801 801 800 799 799 798 798 797 796 796 795 794 794 793 792 791 790 789 788 788 787 786 785 785 784 783 783 782 782 781 780 780 779 778 778 777 776 775 774 773 773 772 771 770 769 768 768 767 766
813 812 812 811 810 810 809 808 808 807 807 806 805 805 804 804 803 803 802 802 801 800 799 799 798 798 797 797 796 795 795 794 793 793 792 791 790 789 788 787 787 786 785 784 784 783 782 782 781 780 780 779 778 778 777 776 775 774 773 773 772 771 770 769 768 768 767 766 765
813 812 811 810 810 809 808 808 807 807 806 805 805 804 804 803 803 802 802 801 800 800 799 798 798 797 797 796 795 795 794 793 793 792 791 790 789 788 788 787 786 785 785 784 783 783 782 781 781 780 779 779 778 777 776 775 774 773 773 772 771 770 769 768 767 766 766 765 764
812 811 811 810 809 809 808 807 807 806 805 805 804 804 803 803 802 802 801 800 800 799 798 798 797 797 796 795 794 794 793 793 792 792 791 790 789 788 787 786 786 785 784 783 783 782 781 781 780 779 779 778 777 776 775 774 773 772 771 770 769 768 768 767 766 765 764 763 763
812 811 810 809 809 808 808 807 806 805 805 804 804 803 803 802 802 801 801 800 799 798 798 797 797 796 795 795 794 793 793 792 792 791 790 789 788 788 787 786 785 785 784 783 782 782 781 780 780 779 778 777 776 775 774 773 772 771 770 769 768 767 766 765 765 764 763 762 761
811 810 810 809 808 808 807 806 806 805 804 804 803 803 802 802 801 800 800 799 799 798 798 797 796 796 795 794 793 793 792 791 791 790 789 788 788 787 786 786 785 784 783 783 782 781 780 779 779 778 777 776 775 774 773 773 771 770 769 768 767 766 765 764 763 763 762 761 760
810 810 809 808 808 807 806 806 805 804 803 803 802 802 801 801 800 800 799 799 798 798 797 796 796 795 794 793 793 792 792 791 790 789 788 788 787 787 786 785 784 783 783 782 781 781 780 779 778 777 777 776 775 774 773 772 770 769 768 767 765 764 763 763 762 761 760 759 758
810 809 809 808 807 807 806 805 804 803 803 802 802 801 801 800 800 799 798 798 797 797 796 795 795 794 793 793 792 792 791 790 789 788 788 787 787 786 785 784 784 783 782 781 781 780 780 779 778 777 776 775 774 773 772 771 769 768 767 766 764 763 762 761 760 760 759 758 757
809 809 808 808 807 806 805 804 803 803 802 802 801 801 800 799 799 798 798 797 797 796 795 794 794 793 793 792 791 791 790 789 789 788 787 787 786 785 785 784 783 782 781 780 780 780 779 778 778 777 775 774 773 772 770 769 768 767 766 765 763 762 761 760 758 758 757 757 756
808 808 807 807 806 805 804 803 803 802 801 801 800 800 799 799 798 798 797 796 796 795 794 794 793 793 792 791 791 790 789 789 788 788 787 786 785 785 784 783 783 781 780 780 779 779 778 777 777 776 774 773 772 771 769 768 767 766 765 764 763 762 760 759 758 757 756 755 754
808 807 807 806 805 804 803 803 802 801 801 800 800 799 799 798 798 797 796 795 795 794 793 793 792 792 791 791 790 789 789 788 787 787 786 786 785 784 783 783 782 781 780 779 778 778 777 776 775 774 773 773 771 770 768 767 766 765 764 763 762 760 759 758 757 756 754 753 752
807 806 806 805 804 803 803 802 801 801 800 800 799 799 798 798 797 796 795 794 794 793 793 792 792 791 791 790 789 789 788 787 787 786 786 785 785 784 783 782 781 780 779 778 778 777 776 775 774 773 773 771 770 769 768 766 765 764 763 762 761 759 758 757 756 755 753 752 751
806 805 805 804 803 803 802 801 800 800 799 799 798 798 797 797 796 795 794 794 793 793 792 792 791 791 790 790 789 788 788 787 786 786 785 785 784 783 782 781 780 779 778 777 777 776 775 774 773 773 771 770 769 768 767 765 764 763 762 761 759 758 757 756 755 753 752 751 749
805 804 804 803 803 802 801 800 800 799 799 798 798 797 797 796 795 795 794 793 793 793 792 792 791 790 790 789 789 788 787 787 786 786 785 784 783 782 781 780 779 778 777 776 776 775 774 773 773 772 770 769 768 767 766 764 763 762 761 759 758 757 756 755 753 752 751 749 748
804 803 803 802 802 801 800 799 799 798 798 798 797 797 796 795 795 794 793 793 792 792 791 791 790 790 789 789 788 788 787 786 786 785 784 783 783 781 780 779 778 777 776 776 775 774 773 773 772 771 769 768 767 766 764 763 762 761 760 758 757 756 755 753 752 751 749 748 747
803 803 802 801 800 800 799 798 798 798 797 797 796 796 795 795 794 793 793 792 792 791 791 790 790 789 789 788 788 787 787 786 785 784 784 783 782 781 779 778 777 776 776 775 774 774 773 772 771 769 768 767 766 764 763 762 761 760 758 757 756 754 753 752 751 749 748 746 745
802 801 800 800 799 799 798 798 797 797 797 796 796 795 795 794 793 793 792 792 791 791 791 790 790 790 789 788 788 787 786 785 785 784 783 782 781 780 779 778 777 776 775 775 774 773 772 771 770 768 767 766 764 763 762 761 759 758 757 755 754 753 752 750 749 748 746 745 743
800 800 799 798 798 798 797 797 797 796 796 795 795 794 794 793 793 792 792 791 791 791 791 790 790 789 789 788 788 787 786 785 784 783 782 781 780 779 778 777 776 775 775 774 773 772 771 770 768 767 766 765 763 762 761 759 758 757 755 754 753 751 750 748 747 746 744 743 742
799 799 798 798 797 797 796 796 796 795 795 794 794 793 793 793 793 792 792 791 791 790 790 790 789 789 788 788 787 786 785 784 783 782 781 780 779 778 777 776 775 775 774 773 772 771 770 769 768 766 765 763 762 761 760 758 757 755 754 752 751 749 748 747 745 744 743 741 740
798 798 797 797 796 796 796 795 795 794 794 794 793 793 793 792 792 792 791 791 790 790 790 789 789 788 788 787 786 785 785 784 783 782 781 780 779 778 777 776 775 774 773 772 771 770 769 768 767 765 764 763 761 760 758 757 756 754 753 751 749 748 747 745 743 742 741 739 738
797 797 796 796 795 795 795 795 794 794 794 793 793 793 793 792 792 791 791 791 790 790 789 789 788 788 787 786 786 785 784 783 783 782 780 779 778 777 776 775 774 773 772 771 770 769 768 767 766 764 763 762 760 759 757 756 754 753 751 750 748 746 745 743 742 740 739 738 736
796 796 795 795 795 794 794 794 794 793 793 793 793 793 792 792 791 791 791 791 790 790 789 788 788 787 786 786 785 784 783 783 782 781 780 779 778 777 776 774 773 772 771 770 769 768 767 766 765 764 763 761 760 758 756 755 753 752 750 748 747 745 743 742 740 738 737 735 734
795 795 795 794 794 794 794 793 793 793 793 793 792 792 792 791 791 791 791 790 790 789 788 788 787 786 786 785 784 783 783 782 781 781 780 778 778 776 775 774 773 771 770 769 768 767 766 765 764 763 762 760 759 757 756 754 753 751 749 747 745 743 741 740 738 737 735 733 732
794 794 794 794 793 793 793 793 793 793 793 792 792 792 791 791 791 790 790 790 789 789 788 787 787 786 785 785 784 783 782 781 780 780 779 778 777 776 774 773 772 771 769 768 768 767 766 765 763 763 761 760 758 757 755 753 752 750 748 746 744 743 740 738 736 735 734 732 730
Wind_Speed
12 12 11 11 10 10 9 10 10 11 12 12 12 12 13 13 13 13 13 14 15 15 15 15 16 17 17 16 16 16 16 15 17 17 18 18 18 18 17 16 17 18 19 18 16 14 12 12 14 14 12 12 13 13 13 12 12 12 11 11 11 10 10 10 10 10 10 10 10
12 11 11 10 9 9 9 9 10 11 11 12 11 11 11 12 12 12 13 13 14 14 15 14 16 17 17 16 16 16 16 15 16 17 18 18 19 19 18 16 17 17 18 17 16 14 13 13 14 13 12 11 13 15 15 14 13 13 12 11 11 10 10 10 11 11 11 11 11
12 12 11 11 11 10 10 10 10 11 11 11 10 10 10 11 11 12 12 12 12 13 14 14 16 17 17 16 16 16 15 15 15 16 17 18 19 19 19 17 17 17 17 17 15 13 12 12 13 12 11 11 13 15 15 15 14 14 14 13 12 12 11 11 12 12 13 13 14
13 13 13 12 12 12 11 10 10 10 11 11 10 9 9 10 11 11 11 11 12 13 14 14 16 17 17 17 17 16 15 15 15 16 16 17 18 19 19 18 17 17 17 17 16 13 11 11 12 11 11 11 12 14 15 15 15 14 14 14 13 13 12 12 13 14 14 14 15
13 13 13 13 13 12 11 10 10 10 10 10 11 11 10 11 11 12 11 11 12 12 13 13 15 17 18 18 17 17 16 15 15 15 16 17 17 18 18 18 17 17 17 17 16 14 11 10 11 11 10 11 11 13 14 15 15 14 13 13 13 12 13 13 13 14 14 15 16
11 12 12 12 12 12 12 11 10 10 9 10 12 13 12 12 12 13 13 13 12 12 12 13 15 17 18 18 18 17 17 17 16 16 16 16 17 17 18 18 17 17 17 18 17 15 12 11 11 11 11 11 11 12 14 15 15 14 14 13 12 12 13 13 13 14 15 15 16
10 10 11 11 11 11 11 11 10 9 9 10 12 13 13 12 13 13 14 13 13 13 13 13 16 18 19 19 19 19 19 18 17 16 16 17 17 18 18 18 18 17 18 18 18 16 14 12 11 11 11 12 11 12 14 15 15 15 14 13 12 12 13 14 14 15 15 16 17
9 9 10 10 10 11 11 11 10 9 10 10 12 13 13 12 13 14 14 14 14 14 14 15 17 18 19 19 19 19 19 19 18 17 17 17 17 18 18 18 18 18 18 18 18 17 15 13 11 11 12 12 12 13 14 15 16 15 15 14 13 13 13 13 14 15 16 16 16
8 9 9 9 10 10 10 10 9 9 10 11 12 13 12 12 13 14 15 15 15 15 16 17 18 18 17 17 18 18 19 19 19 18 18 17 18 18 18 18 18 18 17 18 18 17 15 13 12 12 13 12 12 13 14 15 16 16 15 14 13 14 14 14 14 15 16 16 16
8 8 9 10 10 10 10 10 9 10 11 12 13 13 13 13 14 15 15 15 15 16 17 17 18 17 17 17 17 18 18 19 18 18 18 18 18 18 19 18 18 18 17 17 17 16 15 13 13 13 13 13 13 14 15 15 16 16 15 14 15 15 15 15 15 16 16 16 16
7 8 9 10 10 10 10 10 10 10 12 13 14 14 14 14 15 15 15 15 16 17 17 17 17 17 16 16 17 17 18 18 18 18 18 18 18 18 18 18 18 17 17 17 16 16 15 14 14 14 14 14 14 14 15 16 16 16 16 16 16 16 16 16 16 16 17 17 17
7 8 9 10 10 11 11 11 11 11 12 13 14 15 15 15 15 15 15 16 17 17 17 16 16 16 16 16 16 17 18 18 18 18 17 18 19 19 19 18 18 17 17 17 16 16 15 15 15 15 15 14 14 15 16 17 17 17 17 17 17 17 17 18 18 18 18 18 18
7 8 9 10 11 11 12 11 12 12 13 14 15 15 15 15 15 15 15 16 17 17 16 16 15 15 15 15 16 16 17 18 18 17 17 18 19 20 20 19 18 17 17 17 16 16 15 15 15 15 15 15 15 16 16 17 17 18 18 18 18 18 19 19 19 19 19 19 19
8 9 10 11 11 12 12 12 13 13 14 14 15 15 15 15 15 15 15 16 16 16 16 16 15 15 15 15 15 15 16 17 17 17 17 19 21 22 22 20 19 17 17 17 17 16 15 15 15 15 15 16 16 17 17 17 17 18 18 18 19 19 19 19 20 20 20 20 20
8 9 10 10 11 11 12 13 13 13 13 14 13 13 14 14 14 14 14 15 15 16 16 16 16 15 15 14 14 15 15 15 16 17 18 20 21 22 22 21 19 18 18 18 17 16 15 15 15 15 15 16 17 17 18 18 17 18 18 18 19 19 20 20 20 20 20 20 20
9 10 10 10 10 11 11 12 12 12 12 13 12 13 13 13 14 14 14 15 15 15 15 16 16 16 15 14 14 14 14 15 15 17 18 20 21 22 22 21 19 18 18 18 17 16 15 15 14 14 15 16 17 18 18 18 18 18 18 18 19 19 20 20 20 20 20 20 20
10 10 10 10 10 10 10 11 11 11 12 12 12 12 13 13 13 14 14 14 15 15 15 15 15 16 15 15 14 14 14 15 15 17 18 20 21 22 21 20 19 18 17 17 17 16 15 15 14 15 15 16 17 18 19 19 19 19 19 19 19 20 20 20 20 20 20 21 21
9 9 9 9 9 10 10 10 11 11 11 12 12 12 12 13 13 13 13 14 14 15 15 15 15 15 15 15 14 14 14 15 15 17 18 19 21 21 20 19 18 17 16 16 16 16 15 15 15 15 16 17 18 18 19 19 19 19 20 20 20 20 20 20 20 20 20 21 21
9 9 9 9 9 10 10 10 11 11 11 11 11 12 12 12 13 13 13 13 14 14 15 15 15 15 15 14 14 14 14 14 15 16 18 19 20 19 19 18 17 16 16 16 15 15 15 15 16 16 17 18 18 19 19 19 19 19 20 20 21 21 21 21 20 20 20 21 21
8 8 9 9 9 10 10 10 10 11 11 11 11 11 12 12 13 13 13 14 14 14 14 15 15 15 15 15 14 14 14 14 15 16 17 18 19 18 17 17 16 16 16 15 15 15 15 16 17 17 18 19 19 20 20 20 20 20 20 21 21 21 21 21 21 21 21 21 21
8 8 9 9 9 10 10 10 10 10 11 11 11 11 12 12 13 13 14 14 14 14 14 14 14 15 15 15 15 14 14 15 15 16 17 17 17 17 16 16 16 16 16 15 15 15 16 16 17 18 19 19 20 20 20 20 20 21 21 21 21 22 21 21 21 21 21 22 22
8 9 9 9 9 10 10 10 10 10 10 11 11 11 12 12 13 13 13 14 14 14 14 14 14 14 14 15 15 15 15 15 15 15 16 16 16 16 15 15 16 16 16 16 16 16 17 18 18 19 19 20 20 20 20 20 21 21 22 22 22 22 22 22 22 22 22 22 22
8 9 9 9 9 9 9 10 10 10 10 11 11 12 12 13 13 13 13 13 13 13 13 13 13 13 14 14 14 14 15 15 15 15 15 15 15 15 15 15 15 16 16 16 16 17 18 19 19 19 20 20 20 20 20 21 21 22 22 23 23 23 22 22 22 22 22 22 22
8 9 9 9 9 9 9 10 10 10 11 11 12 12 13 13 13 14 14 13 13 13 13 13 13 13 13 13 14 14 15 15 15 15 16 16 15 15 15 15 15 16 16 16 17 17 18 19 20 20 20 20 20 20 20 21 21 22 22 23 23 23 23 22 22 22 23 23 22
8 9 9 9 9 9 10 10 10 11 11 11 12 12 13 13 14 14 14 14 13 13 13 13 13 13 14 14 14 14 14 14 15 16 16 16 16 16 16 16 16 16 17 18 17 17 18 18 19 20 20 20 20 21 21 21 21 21 22 22 23 23 23 23 23 23 23 23 22
8 9 9 9 9 10 10 10 11 11 11 12 12 13 13 14 14 14 14 14 14 14 13 13 13 14 14 15 15 14 14 14 14 15 16 16 16 17 17 17 17 18 19 19 18 18 18 18 18 19 20 21 21 21 21 21 21 21 22 22 22 22 22 23 23 23 23 23 23
8 9 9 9 10 10 10 11 11 11 11 12 13 13 14 14 14 14 14 15 14 14 14 14 14 14 15 15 15 15 15 15 14 15 15 16 16 17 18 18 19 21 21 20 19 18 18 19 19 19 20 21 21 21 21 21 21 21 21 21 21 21 22 22 23 23 23 23 23
9 9 9 10 10 10 10 11 11 11 12 13 13 14 14 14 14 14 15 15 15 15 15 15 15 15 15 15 16 16 16 15 15 15 15 15 16 17 18 20 21 22 21 19 18 18 18 19 19 19 20 20 21 21 21 20 21 21 20 20 20 21 21 22 22 22 23 24 24
9 9 10 10 10 10 11 11 11 12 12 13 13 14 14 14 14 15 15 15 15 16 16 16 15 15 15 16 16 16 16 16 15 15 15 16 17 18 19 20 21 21 20 19 18 18 19 19 19 19 20 20 21 21 20 20 20 20 20 20 20 20 21 21 22 22 23 24 24
9 9 10 10 10 10 11 11 11 12 12 13 13 14 14 14 15 15 16 16 16 16 16 15 15 15 16 16 16 16 16 16 15 15 15 16 18 19 20 20 21 21 20 18 18 19 19 19 20 20 20 21 21 20 20 19 20 20 20 20 20 20 21 21 22 23 23 24 25
8 9 9 10 10 11 11 11 12 12 12 13 13 14 14 15 15 16 16 16 16 15 15 15 15 15 15 15 15 16 16 16 15 15 16 17 19 20 20 20 21 21 20 19 18 19 19 20 20 20 20 21 20 20 19 19 20 20 20 20 20 21 21 22 23 23 24 25 25
8 9 10 10 11 11 11 11 12 12 13 13 14 14 14 15 15 15 15 15 16 16 15 15 16 16 16 15 15 16 16 16 16 16 17 18 19 19 20 20 21 21 20 19 19 19 19 19 20 20 21 21 20 20 19 20 20 20 20 20 21 21 22 22 23 24 25 25 25
9 9 10 11 11 11 11 12 12 12 13 13 14 14 14 15 15 15 15 15 16 16 16 16 16 16 16 16 16 16 16 16 16 16 17 17 18 19 20 21 21 20 19 19 19 19 19 19 20 20 21 21 20 20 20 20 20 20 20 20 21 22 22 23 24 24 25 26 25
9 10 11 11 11 12 12 12 12 13 13 13 14 14 15 15 16 16 16 16 16 15 15 15 15 15 15 15 16 16 16 16 16 16 17 17 18 19 20 20 20 20 19 18 19 19 19 19 20 20 21 20 20 20 20 20 20 20 20 21 22 23 23 24 24 25 25 26 25
10 11 11 11 12 12 12 12 13 13 13 14 14 14 15 15 15 16 16 16 15 15 14 14 13 13 14 14 14 15 16 16 16 16 17 18 19 20 20 20 20 19 19 18 18 19 19 20 20 21 21 20 20 20 20 21 21 21 21 22 23 23 24 25 25 25 25 25 25
10 11 11 12 12 12 12 12 13 13 14 14 15 15 15 15 15 15 15 15 15 15 14 14 14 14 14 14 14 15 15 16 16 17 17 18 19 20 20 20 20 20 19 18 18 19 19 20 20 21 21 21 21 21 21 21 21 21 22 23 23 24 25 25 25 25 25 25 25
11 11 11 12 12 12 12 12 13 13 13 14 14 15 15 15 15 15 14 14 15 15 15 14 14 15 15 15 15 15 15 15 16 17 17 18 18 19 19 19 19 20 20 19 19 19 20 20 21 21 21 21 21 21 21 21 21 21 22 23 23 24 25 25 25 25 25 25 25
10 11 11 11 11 12 12 12 12 13 13 14 14 14 14 14 15 15 14 14 14 15 15 15 15 15 15 15 15 15 14 14 15 16 17 17 18 18 18 19 19 20 20 19 19 19 20 20 21 21 21 21 22 22 22 21 21 22 22 23 24 25 25 25 25 25 25 25 25
10 11 11 11 11 11 11 11 11 12 13 13 13 13 13 14 14 14 13 12 13 13 14 14 14 14 14 15 15 15 15 14 14 15 16 17 17 17 17 18 18 20 20 20 19 19 20 20 21 21 21 21 22 22 22 21 21 22 23 24 24 25 26 25 25 25 25 26 26
10 10 11 11 11 11 10 10 11 11 12 12 12 13 13 14 14 13 12 11 11 11 12 13 14 14 14 14 15 15 15 15 15 15 15 16 16 16 16 17 18 19 20 20 20 19 20 20 21 21 22 22 22 22 22 22 22 22 23 24 25 26 26 26 25 25 25 26 27
10 10 10 10 10 10 10 10 10 10 11 11 11 12 13 13 13 12 11 10 10 10 11 12 13 13 13 14 14 15 15 15 15 15 16 16 15 15 15 16 18 19 20 20 20 20 20 20 21 21 22 22 23 22 20 21 22 23 23 24 25 26 26 27 27 26 26 26 27
Wind_Direction
39 39 37 32 27 23 20 19 18 14 10 8 5 6 8 8 4 359 358 1 1 360 357 355 350 346 344 343 346 348 351 355 358 357 355 353 350 348 348 353 356 355 355 356 1 6 15 23 21 12 4 7 3 356 349 347 345 342 340 340 341 339 335 336 341 345 348 347 342
36 38 39 36 32 27 22 17 17 15 12 9 5 6 9 9 2 355 354 358 359 357 355 351 347 347 346 344 344 345 347 351 355 355 353 351 348 345 344 348 352 352 352 354 359 4 11 21 19 9 1 8 3 356 351 349 349 349 350 352 352 349 343 340 341 342 343 341 337
32 33 33 32 29 25 20 16 15 14 12 8 2 3 8 9 1 353 352 355 355 354 352 349 348 349 350 349 347 346 346 347 351 352 351 349 346 344 343 346 349 350 350 351 356 1 9 19 17 6 359 5 2 358 354 353 356 359 2 3 4 0 355 349 345 342 340 337 334
29 28 26 25 23 20 18 17 16 15 11 5 0 2 8 6 357 351 349 351 353 353 352 350 351 353 354 353 351 350 348 348 349 349 348 346 345 344 344 347 350 350 350 350 353 357 6 18 14 3 356 2 1 358 354 352 356 0 3 4 3 0 357 354 350 348 346 343 341
26 25 23 21 20 18 16 19 19 15 10 5 3 7 11 5 355 350 350 353 354 353 351 351 353 356 358 356 355 354 354 353 352 350 347 345 345 345 347 350 353 352 351 351 352 355 2 13 7 357 353 358 359 356 352 349 352 355 358 359 358 357 355 354 352 350 348 344 343
22 21 20 19 18 16 15 18 20 15 8 5 6 10 12 6 356 353 354 355 352 351 352 353 355 357 358 357 356 356 357 357 355 352 349 347 346 346 349 353 354 354 353 352 354 356 3 11 2 354 352 354 354 350 347 347 350 352 354 355 354 353 352 350 348 346 344 341 340
18 17 15 14 15 13 13 16 17 14 9 7 7 9 9 4 357 356 356 356 353 352 354 353 355 356 357 357 358 358 358 356 354 352 350 348 347 348 350 353 354 354 353 353 354 357 3 8 0 354 353 353 352 349 348 349 350 351 351 351 350 349 348 346 344 342 339 336 336
18 15 12 12 13 12 12 15 15 13 9 8 7 7 5 0 357 357 357 356 354 354 354 353 354 355 356 357 358 359 359 357 354 351 350 348 347 348 350 351 352 352 352 353 354 357 1 3 358 354 353 352 349 348 349 350 351 351 350 347 345 345 344 342 341 338 336 334 334
19 15 12 12 12 12 12 14 14 11 9 8 8 6 3 360 358 358 357 356 354 354 354 353 353 354 355 356 357 358 357 357 355 352 349 348 347 348 348 349 349 350 350 351 352 355 358 358 355 353 352 350 347 346 346 349 350 349 347 345 341 340 339 339 338 337 335 332 331
16 17 15 12 11 11 12 13 14 12 9 9 9 7 5 1 0 359 357 354 353 353 353 352 352 352 352 354 356 355 355 354 354 351 348 347 347 347 347 347 347 348 348 349 350 352 354 354 352 351 349 348 346 345 345 347 347 345 343 341 338 337 336 336 336 335 333 331 328
14 19 19 16 12 10 12 15 16 13 11 10 9 9 6 3 2 359 356 354 352 352 352 351 350 349 350 351 353 352 351 351 351 350 347 345 346 346 346 346 346 346 347 347 348 350 351 350 349 348 347 346 345 345 344 344 343 342 340 339 337 336 335 334 334 334 331 329 326
15 19 20 18 14 11 12 15 16 14 11 10 9 8 6 4 2 358 354 353 352 351 350 349 348 347 347 348 349 349 348 348 349 348 345 344 344 344 344 344 344 344 345 345 346 348 349 348 347 345 344 345 345 344 343 342 341 340 338 337 336 335 334 333 333 331 330 327 325
18 18 18 16 14 11 11 12 13 12 10 9 9 7 5 2 359 356 353 352 352 350 348 346 345 345 345 345 346 346 347 347 347 345 344 343 343 342 343 343 344 344 343 343 345 347 348 346 345 343 342 343 344 343 341 340 339 338 336 335 334 333 332 331 330 329 327 326 323
21 20 18 15 13 11 10 10 11 10 9 8 7 5 2 360 357 355 353 351 350 348 346 345 344 344 344 343 343 344 345 345 346 345 344 343 342 341 341 342 344 344 343 342 344 346 347 345 344 342 341 341 342 341 339 338 336 335 334 332 331 330 329 328 327 326 325 324 322
21 20 17 13 10 9 9 9 8 7 6 5 3 1 358 357 355 353 351 349 348 346 345 344 344 343 342 341 341 341 342 344 346 346 345 344 343 341 340 341 343 344 343 343 345 346 346 343 342 342 342 341 339 338 337 335 333 331 330 329 327 326 325 324 324 324 323 322 320
16 15 13 9 8 7 7 6 5 3 2 0 358 356 355 353 351 350 349 348 345 344 344 344 343 342 341 340 340 339 340 342 345 346 346 344 342 339 339 340 343 344 344 343 344 344 343 341 341 342 342 340 337 335 334 333 331 328 327 325 324 324 323 322 322 321 321 320 318
9 9 7 4 4 4 4 3 1 359 358 356 354 353 352 350 348 347 347 346 343 342 342 342 341 341 340 340 339 339 340 341 344 345 345 343 340 338 338 340 344 344 343 342 342 341 340 339 340 342 341 339 335 333 332 331 329 326 324 323 323 322 321 321 320 320 319 318 317
1 1 1 0 1 1 1 359 358 356 354 352 351 350 348 347 345 344 344 343 341 340 339 339 339 339 339 339 339 340 340 341 342 343 343 341 337 336 338 342 344 344 342 340 340 339 339 340 341 341 340 338 335 332 331 329 326 324 323 322 321 320 320 319 319 318 318 317 315
352 354 357 358 359 359 357 356 355 353 350 348 346 345 344 344 342 341 340 341 341 340 338 336 336 337 337 338 338 339 339 340 340 341 340 338 336 337 340 343 344 343 340 339 338 338 339 341 341 340 338 336 332 330 329 326 323 322 321 320 320 319 319 318 318 317 316 316 315
348 352 355 356 355 354 353 352 350 348 346 343 341 341 342 342 341 340 340 341 340 339 337 335 334 335 335 336 336 337 338 338 338 338 338 336 337 339 341 342 342 341 339 338 338 339 340 340 340 338 335 332 330 328 326 324 322 321 320 320 319 319 318 317 317 316 316 315 314
348 351 352 351 351 351 350 348 346 344 342 340 340 340 340 341 341 341 341 341 339 337 335 334 333 334 335 335 336 337 337 337 337 337 336 336 339 341 341 341 340 338 337 337 337 338 339 339 337 334 332 330 327 325 324 323 322 321 320 319 318 318 317 316 316 315 315 315 313
347 348 347 347 347 346 345 344 342 341 341 340 340 340 340 340 341 341 341 339 337 336 335 333 333 334 335 336 336 337 336 336 336 336 337 338 341 342 341 340 338 336 335 336 336 337 337 336 333 332 330 327 325 324 324 323 321 320 319 318 317 317 316 315 315 314 314 313 312
344 344 343 343 343 343 343 343 342 342 341 341 341 341 341 340 340 340 340 338 337 336 335 334 334 334 335 337 338 337 336 335 336 337 339 342 342 341 340 339 337 334 334 334 335 335 334 333 331 329 327 325 324 324 323 322 321 319 318 317 316 316 315 314 314 313 313 312 311
341 341 340 340 341 343 343 343 343 344 344 344 343 342 341 340 340 340 340 339 338 338 337 337 336 337 337 339 340 339 337 336 337 339 342 344 342 339 337 337 335 333 332 332 333 333 332 330 328 326 325 324 324 323 322 321 319 318 317 316 315 315 314 313 313 312 311 311 310
338 338 338 340 343 344 345 345 347 347 347 345 344 343 342 342 342 341 341 341 341 341 341 340 340 340 342 342 342 341 339 339 340 341 342 342 340 337 335 334 333 332 332 333 331 330 328 327 325 324 324 324 324 324 322 320 318 317 316 315 315 314 313 313 312 311 311 310 309
336 336 339 341 344 346 348 349 350 349 347 346 345 345 345 344 344 343 343 344 344 344 344 344 345 346 346 345 343 342 340 341 343 343 341 338 337 336 335 333 331 331 332 333 331 328 327 326 325 325 325 325 325 324 322 319 318 317 316 315 315 314 313 313 312 311 310 310 309
335 337 340 342 345 349 351 351 350 350 348 347 347 347 347 346 345 345 345 346 346 347 347 348 349 349 348 346 344 343 343 343 345 344 341 336 334 334 333 332 331 332 333 333 330 328 327 326 326 326 327 327 326 324 321 319 318 318 317 316 315 314 313 311 311 310 310 310 309
336 338 340 343 347 350 351 351 352 351 350 349 349 347 346 346 346 347 348 348 348 349 350 351 351 350 348 347 345 344 344 344 345 342 338 333 331 330 331 331 332 334 335 333 330 328 327 327 327 328 328 327 326 324 321 320 320 319 318 317 315 314 312 311 310 310 310 310 309
336 337 339 342 346 349 351 352 353 352 351 349 348 347 346 347 348 349 350 350 351 352 352 351 351 350 349 348 346 345 345 346 344 340 334 330 329 329 330 332 334 336 336 334 330 328 328 328 329 329 329 328 326 324 323 323 322 320 318 316 314 313 312 311 311 311 310 310 309
335 336 338 341 344 348 351 353 352 351 350 348 347 347 347 349 351 352 353 352 353 354 353 352 351 350 350 348 347 346 347 346 342 337 331 329 329 330 333 335 337 339 339 335 331 329 329 329 330 329 329 328 327 326 325 325 323 320 318 315 314 313 312 312 311 311 310 310 309
334 334 336 339 343 347 350 352 351 350 349 348 348 348 349 352 354 355 354 353 352 352 352 352 351 351 350 349 348 348 347 345 340 335 331 331 331 333 335 338 339 341 340 336 331 330 330 331 331 330 330 329 329 329 328 327 323 320 317 315 314 314 313 313 312 311 311 310 310
333 333 335 338 343 347 349 350 349 348 348 348 349 349 351 353 355 355 354 352 351 352 352 353 352 351 350 350 349 348 347 344 340 337 335 335 335 336 337 339 340 341 340 335 332 331 332 332 332 332 332 332 332 331 330 327 323 320 318 316 315 315 314 313 313 312 311 310 309
332 333 335 339 343 345 347 348 348 347 347 348 349 351 352 353 353 353 353 353 352 353 353 353 352 351 350 349 348 347 345 343 340 339 339 339 338 338 338 339 340 341 339 333 332 332 333 333 333 333 333 334 334 333 330 327 324 321 319 317 316 315 315 314 312 311 311 310 309
334 335 337 339 342 344 345 346 346 346 346 347 349 352 353 353 354 354 354 353 352 352 352 352 351 350 349 349 347 345 343 342 342 342 342 342 341 339 338 338 340 341 338 333 332 333 334 335 335 335 336 336 336 334 331 328 325 322 320 318 317 317 316 315 314 313 311 311 309
336 336 337 338 340 342 343 343 344 345 346 347 349 351 352 354 354 354 353 351 350 349 350 350 350 350 350 350 349 347 344 343 343 343 343 343 341 339 338 338 341 341 338 334 334 335 335 336 337 337 338 339 337 335 332 329 326 323 321 319 318 318 318 317 316 315 313 312 310
336 335 336 337 338 340 341 342 343 344 345 347 349 350 351 352 353 353 351 349 347 347 348 349 350 351 351 350 350 349 347 344 343 343 343 343 341 339 338 338 340 342 340 336 336 336 337 338 338 339 340 340 338 335 332 329 326 324 322 321 320 319 319 318 317 316 314 313 312
335 334 334 335 336 337 339 340 341 343 345 347 348 349 349 349 350 350 350 348 346 345 346 348 349 351 351 350 349 349 349 348 343 341 341 342 341 339 338 338 340 342 342 339 338 338 339 340 340 341 341 340 338 336 333 329 327 325 324 323 321 321 320 319 318 317 316 314 313
334 333 332 333 333 334 336 337 339 342 344 345 345 346 346 346 347 348 349 347 344 343 343 345 348 349 349 348 346 348 350 349 345 342 341 341 342 340 338 337 339 342 343 341 339 340 340 341 341 342 342 340 338 336 333 330 328 326 325 324 323 322 321 320 319 318 316 315 314
332 331 330 329 329 330 331 334 337 340 341 341 342 343 344 345 345 345 345 345 342 341 341 342 345 347 347 346 345 345 347 349 347 344 342 342 342 341 339 337 339 341 343 342 340 340 341 341 341 342 342 340 338 336 333 331 329 327 327 326 324 323 323 322 321 319 317 316 316
330 328 327 325 325 325 327 330 334 336 338 338 339 341 343 343 341 340 340 340 340 340 340 341 343 345 346 345 343 342 344 346 348 347 345 343 342 341 340 339 340 342 343 342 341 341 341 341 342 342 342 340 339 337 335 333 331 329 327 327 327 325 324 323 322 320 318 318 317
327 325 323 320 319 320 321 325 329 331 333 335 338 339 339 337 336 335 335 336 338 340 340 341 342 344 345 345 343 342 342 344 347 348 346 344 343 343 343 342 342 342 343 342 342 342 341 342 342 342 342 340 340 339 336 335 333 331 329 327 327 326 325 324 323 321 320 319 318